This demonstration page uses our WeatherBlox Daily Observations layout. Learn more.

Left ArrowRight Arrow

Hourly Observations for May 19, 2022

Temp ( °F °C ) Dew Point ( °F °C ) Humidity (%) Winds ( mph kmh ) Pressure ( in mb ) Visibility ( mi km ) Precip ( " mm )
12:51 am 00:51 Clear 75 23.9 23 -5 14 14 NW 15 24 29.77 1008 10 16 0.00 0.00
1:51 am 01:51 Clear 73 22.8 27 -2.8 18 18 NNW 15 24 29.77 1008 10 16 0.00 0.00
2:51 am 02:51 Clear 72 22.2 32 0 23 23 NW 12 19 29.76 1008 10 16 0.00 0.00
3:51 am 03:51 Clear 66 18.9 27 -2.8 23 23 NNW 5 7 29.76 1008 10 16 0.00 0.00
4:51 am 04:51 Clear 65 18.3 26 -3.3 23 23 NW 8 13 29.77 1008 10 16 0.00 0.00
5:51 am 05:51 Sunny 63 17.2 27 -2.8 26 26 S 5 7 29.79 1009 10 16 0.00 0.00
6:51 am 06:51 Sunny 69 20.6 29 -1.7 22 22 Calm 29.79 1009 10 16 0.00 0.00
7:51 am 07:51 Sunny 78 25.6 35 1.7 21 21 WNW 9 15 29.78 1009 10 16 0.00 0.00
8:51 am 08:51 Sunny 82 27.8 34 1.1 18 18 NW 16 26 29.78 1008 10 16 0.00 0.00
9:51 am 09:51 Sunny 86 30 32 0 14 14 NNW 16 26 29.76 1008 10 16 0.00 0.00
10:51 am 10:51 Sunny 87 30.6 31 -0.6 13 13 NW 12 19 29.74 1007 10 16 0.00 0.00
11:51 am 11:51 Sunny 89 31.7 32 0 13 13 W 7 11 29.70 1006 10 16 0.00 0.00
12:51 pm 12:51 Sunny 91 32.8 32 0 12 12 WNW 8 13 29.66 1004 10 16 0.00 0.00
1:51 pm 13:51 Sunny 93 33.9 29 -1.7 10 10 WNW 16 26 29.62 1003 10 16 0.00 0.00
2:51 pm 14:51 Sunny 94 34.4 25 -3.9 8 8 WNW 16 26 29.59 1002 10 16 0.00 0.00
3:51 pm 15:51 Sunny 93 33.9 29 -1.7 10 10 WNW 21 33 29.56 1001 10 16 0.00 0.00
4:51 pm 16:51 Sunny 93 33.9 27 -2.8 9 9 NW 23 37 29.55 1001 10 16 0.00 0.00
5:51 pm 17:51 Sunny 90 32.2 24 -4.4 9 9 WNW 21 33 29.55 1001 10 16 0.00 0.00
6:51 pm 18:51 Sunny 87 30.6 24 -4.4 10 10 WNW 21 33 29.55 1001 10 16 0.00 0.00
7:51 pm 19:51 Clear 83 28.3 19 -7.2 9 9 WNW 16 26 29.55 1001 10 16 0.00 0.00
8:51 pm 20:51 Clear 79 26.1 17 -8.3 10 10 NW 13 20 29.56 1001 10 16 0.00 0.00
9:51 pm 21:51 Clear 75 23.9 16 -8.9 10 10 WNW 13 20 29.57 1002 10 16 0.00 0.00
10:51 pm 22:51 Clear 76 24.4 24 -4.4 14 14 WNW 16 26 29.57 1001 10 16 0.00 0.00
11:51 pm 23:51 Clear 73 22.8 27 -2.8 18 18 NW 14 22 29.57 1002 10 16 0.00 0.00

Powered by AerisWeather